This is the latest recevied weather packets stored in our database for station/object KC3VCX. If no packets are shown the sender has not sent any weather packets the latest 10 day(s).
| Time | Temp. | Humidity | Pressure | Rain* | Wind** | Luminosity | Snow |
|---|---|---|---|---|---|---|---|
| 1777594822 | 6.11° C | 83% | 1016.1 hPa | 0 mm | - | 1 W/m² | - |
| 1777594518 | 6.11° C | 82% | 1016 hPa | 0 mm | - | 3 W/m² | - |
| 1777594214 | 6.67° C | 81% | 1016.1 hPa | 0 mm | - | 5 W/m² | - |
| 1777593910 | 6.67° C | 80% | 1015.9 hPa | 0 mm | - | 7 W/m² | - |
| 1777593607 | 6.67° C | 79% | 1015.8 hPa | 0 mm | - | 10 W/m² | - |
| 1777593302 | 7.22° C | 78% | 1016 hPa | 0 mm | - | 16 W/m² | - |
| 1777592996 | 7.22° C | 77% | 1015.8 hPa | 0 mm | - | 17 W/m² | - |
| 1777592686 | 7.78° C | 77% | 1015.8 hPa | 0 mm | - | 26 W/m² | - |
| 1777592382 | 7.78° C | 77% | 1016.1 hPa | 0 mm | - | 31 W/m² | - |
| 1777592077 | 7.22° C | 77% | 1015.8 hPa | 0 mm | - | 23 W/m² | - |
| 1777591775 | 7.22° C | 79% | 1015.8 hPa | 0 mm | - | 32 W/m² | - |
| 1777591465 | 7.22° C | 78% | 1016.1 hPa | 0 mm | - | 21 W/m² | - |
| 1777591161 | 7.22° C | 77% | 1016 hPa | 0 mm | - | 16 W/m² | - |
| 1777590855 | 7.22° C | 76% | 1016 hPa | 0 mm | - | 20 W/m² | - |
| 1777590553 | 7.22° C | 75% | 1016.1 hPa | 0 mm | - | 29 W/m² | - |
| 1777590248 | 7.22° C | 74% | 1016 hPa | 0 mm | - | 32 W/m² | - |
| 1777589946 | 7.78° C | 70% | 1015.8 hPa | 0 mm | - | 28 W/m² | - |
| 1777589642 | 8.33° C | 69% | 1016 hPa | 0 mm | - | 29 W/m² | - |
| 1777589339 | 8.33° C | 68% | 1015.9 hPa | 0 mm | - | 27 W/m² | - |
| 1777589036 | 8.89° C | 67% | 1015.8 hPa | 0 mm | - | 23 W/m² | - |
| 1777588733 | 8.89° C | 67% | 1015.8 hPa | 0 mm | - | 28 W/m² | - |
| 1777588428 | 8.89° C | 68% | 1015.7 hPa | 0 mm | - | 31 W/m² | - |
| 1777588124 | 8.89° C | 68% | 1015.8 hPa | 0 mm | - | 41 W/m² | - |
| 1777587820 | 8.89° C | 67% | 1015.7 hPa | 0 mm | - | 45 W/m² | - |
| 1777587519 | 8.89° C | 65% | 1015.8 hPa | 0 mm | - | 46 W/m² | - |
* Rain latest hour (hover to see other rain measurements)
** Current wind speed in m/s (hover to see current wind gust speed)